Weather History for Iron Mountain, MI

Change the Weather History Date:

Wednesday, December 4, 2013

  Actual Average Record
Temperature  
Mean Temperature 30 °F -  
Max Temperature 37 °F 30 °F 54 °F (1962)
Min Temperature 24 °F 12 °F -11 °F (1976)
Degree Days  
Heating Degree Days 34    
Moisture  
Dew Point 27 °F    
Average Humidity 91    
Maximum Humidity 100    
Minimum Humidity 84    
Precipitation  
Precipitation 0.19 in - - ()
Sea Level Pressure  
Sea Level Pressure 29.65 in    
Wind  
Wind Speed 6 mph (East)    
Max Wind Speed 14 mph    
Max Gust Speed 26 mph    
Visibility 3 miles    
Events Fog , Rain , Snow    
Averages and records for this station are not official NWS values.
T = Trace of Precipitation, MM = Missing Value Source: NWS Daily Summary

Daily Weather History Graph

Daily Weather History Graph

Search for Another Location

Airport:

Trip Planner

Search our weather history database for the weather conditions in past years. The results will help you decide how hot, cold, wet, or windy it might be!

Date:

Astronomy

Dec. 04, 2013 Rise Set
Actual Time 7:16 AM CST 4:08 PM CST
Civil Twilight 6:42 AM CST 4:42 PM CST
Nautical Twilight 6:05 AM CST 5:19 PM CST
Astronomical Twilight 5:29 AM CST 5:55 PM CST
Moon 8:42 AM CST (12/4) 6:21 PM CST (12/4)
Length of Visible Light 9h 59m
Length of Day
8h 51m
Waxing Crescent, 4% of the Moon is Illuminated
Dec 4
Waxing Crescent
Dec 9
First Quarter
Dec 17
Full
Dec 25
Last Quarter
Jan 1
New

Hourly Weather History & Observations

Time (CST) Temp. Windchill Dew Point Humidity Pressure Visibility Wind Dir Wind Speed Gust Speed Precip Events Conditions
12:18 AM 24.8 °F 19.1 °F 21.2 °F 86% 29.87 in 10.0 mi NE 4.6 mph - N/A   Overcast
12:54 AM 25.0 °F 16.3 °F 21.0 °F 85% 29.92 in 7.0 mi NE 8.1 mph - 0.00 in   Overcast
1:54 AM 25.0 °F 20.7 °F 21.9 °F 88% 29.93 in 10.0 mi NE 3.5 mph - N/A   Overcast
2:54 AM 26.1 °F 18.4 °F 21.9 °F 84% 29.93 in 9.0 mi NNE 6.9 mph - 0.00 in   Overcast
3:54 AM 26.1 °F 21.9 °F 21.9 °F 84% 29.90 in 8.0 mi Variable 3.5 mph - N/A   Overcast
4:54 AM 26.1 °F 18.4 °F 23.0 °F 88% 29.89 in 5.0 mi ENE 6.9 mph - N/A   Overcast
5:32 AM 26.6 °F 18.2 °F 23.0 °F 86% 29.82 in 2.5 mi ENE 8.1 mph - 0.00 in Snow Light Snow
5:54 AM 26.1 °F 17.6 °F 23.0 °F 88% 29.88 in 3.0 mi ENE 8.1 mph - 0.01 in Snow Light Snow
6:30 AM 26.6 °F 19.1 °F 23.0 °F 86% 29.83 in 2.5 mi Variable 6.9 mph - 0.00 in Snow Light Snow
6:49 AM 26.6 °F 19.1 °F 23.0 °F 86% 29.82 in 1.2 mi ENE 6.9 mph - 0.01 in Snow Light Snow
6:54 AM 26.1 °F 17.6 °F 23.0 °F 88% 29.88 in 1.0 mi ENE 8.1 mph - 0.01 in Snow Light Snow
7:07 AM 26.6 °F 18.2 °F 23.0 °F 86% 29.82 in 1.0 mi ENE 8.1 mph - 0.00 in Snow Light Snow
7:29 AM 26.6 °F 19.1 °F 23.0 °F 86% 29.82 in 0.5 mi ENE 6.9 mph - 0.01 in Fog , Snow Snow
7:54 AM 26.1 °F 18.4 °F 23.0 °F 88% 29.88 in 0.5 mi East 6.9 mph - 0.01 in Fog , Snow Snow
8:49 AM 26.6 °F 19.1 °F 23.0 °F 86% 29.83 in 0.2 mi ENE 6.9 mph - 0.02 in Fog , Snow Snow
8:54 AM 26.1 °F 18.4 °F 23.0 °F 88% 29.88 in 0.5 mi ENE 6.9 mph - 0.02 in Fog , Snow Snow
9:06 AM 26.6 °F 18.2 °F 23.0 °F 86% 29.81 in 0.2 mi ENE 8.1 mph - 0.01 in Fog , Snow Snow
9:13 AM 26.6 °F 19.1 °F 23.0 °F 86% 29.81 in 0.5 mi NE 6.9 mph - 0.01 in Fog , Snow Snow
9:33 AM 26.6 °F 18.2 °F 23.0 °F 86% 29.80 in 1.0 mi East 8.1 mph - 0.02 in Snow Light Snow
9:45 AM 26.6 °F 17.5 °F 23.0 °F 86% 29.79 in 3.0 mi ENE 9.2 mph - 0.02 in Snow Light Snow
9:54 AM 26.1 °F 17.6 °F 23.0 °F 88% 29.83 in 4.0 mi ENE 8.1 mph - 0.02 in Rain Light Freezing Rain
10:03 AM 26.6 °F 19.1 °F 23.0 °F 86% 29.77 in 4.0 mi Variable 6.9 mph - 0.00 in Rain Light Freezing Rain
10:32 AM 26.6 °F 20.0 °F 24.8 °F 93% 29.77 in 2.5 mi East 5.8 mph - 0.00 in   Overcast
10:43 AM 26.6 °F 19.1 °F 24.8 °F 93% 29.77 in 1.8 mi East 6.9 mph - 0.01 in Rain Light Freezing Rain
10:54 AM 27.0 °F 20.5 °F 25.0 °F 92% 29.81 in 1.5 mi East 5.8 mph - 0.01 in Rain Light Freezing Rain
11:15 AM 28.4 °F 20.4 °F 24.8 °F 86% 29.76 in 2.0 mi East 8.1 mph - 0.00 in Rain Light Freezing Rain
11:34 AM 28.4 °F 20.4 °F 26.6 °F 93% 29.74 in 3.0 mi East 8.1 mph - 0.01 in Rain Light Freezing Rain
11:44 AM 28.4 °F 21.2 °F 26.6 °F 93% 29.74 in 2.5 mi East 6.9 mph - 0.01 in Rain Light Freezing Rain
11:54 AM 28.9 °F 23.9 °F 26.1 °F 89% 29.79 in 4.0 mi Variable 4.6 mph - 0.01 in Rain Light Freezing Rain
12:08 PM 28.4 °F 21.2 °F 26.6 °F 93% 29.72 in 2.5 mi East 6.9 mph 16.1 mph 0.00 in Rain Light Freezing Rain
12:45 PM 28.4 °F 22.2 °F 26.6 °F 93% 29.68 in 3.0 mi Variable 5.8 mph - 0.00 in Rain Light Freezing Rain
12:52 PM 28.4 °F 22.2 °F 26.6 °F 93% 29.68 in 2.0 mi Variable 5.8 mph - 0.00 in Rain Light Freezing Rain
12:54 PM 28.9 °F 21.9 °F 27.0 °F 92% 29.73 in 2.0 mi East 6.9 mph - 0.00 in Rain Light Freezing Rain
1:11 PM 28.4 °F - 26.6 °F 93% 29.67 in 3.0 mi Calm Calm - 0.00 in Rain Light Freezing Rain
1:18 PM 28.4 °F 23.3 °F 26.6 °F 93% 29.67 in 2.0 mi Variable 4.6 mph - 0.00 in   Overcast
1:26 PM 28.4 °F 24.6 °F 26.6 °F 93% 29.66 in 2.0 mi Variable 3.5 mph - 0.00 in   Overcast
1:35 PM 28.4 °F 22.2 °F 26.6 °F 93% 29.65 in 1.8 mi ENE 5.8 mph - 0.00 in   Overcast
1:43 PM 28.4 °F 21.2 °F 26.6 °F 93% 29.64 in 2.5 mi ENE 6.9 mph - 0.00 in   Overcast
1:54 PM 30.0 °F 25.2 °F 28.0 °F 92% 29.68 in 2.0 mi East 4.6 mph - 0.00 in Rain Light Freezing Rain
2:12 PM 30.2 °F 21.9 °F 28.4 °F 93% 29.62 in 1.5 mi East 9.2 mph - 0.01 in Rain Light Freezing Rain
2:21 PM 30.2 °F 23.4 °F 28.4 °F 93% 29.61 in 3.0 mi East 6.9 mph - 0.01 in Rain Light Freezing Rain
2:26 PM 30.2 °F 21.9 °F 28.4 °F 93% 29.60 in 2.5 mi East 9.2 mph - 0.01 in Rain Light Freezing Rain
2:41 PM 30.2 °F 23.4 °F 28.4 °F 93% 29.60 in 4.0 mi East 6.9 mph - 0.01 in Rain Light Freezing Rain
2:54 PM 30.9 °F 22.8 °F 28.0 °F 89% 29.63 in 4.0 mi ENE 9.2 mph - 0.02 in Rain Light Freezing Rain
3:54 PM 30.9 °F 23.5 °F 28.9 °F 92% 29.60 in 5.0 mi East 8.1 mph - 0.00 in Rain Light Freezing Rain
4:22 PM 32.0 °F 27.5 °F 30.2 °F 93% 29.53 in 7.0 mi East 4.6 mph - 0.00 in Rain Light Freezing Rain
4:54 PM 33.1 °F 28.7 °F 30.9 °F 92% 29.54 in 5.0 mi Variable 4.6 mph - 0.00 in Rain Light Freezing Rain
5:21 PM 33.8 °F 28.6 °F 32.0 °F 93% 29.47 in 2.5 mi East 5.8 mph - 0.00 in Rain Light Rain
5:33 PM 33.8 °F 27.7 °F 32.0 °F 93% 29.47 in 1.8 mi ESE 6.9 mph - 0.00 in   Overcast
5:50 PM 33.8 °F 28.6 °F 32.0 °F 93% 29.46 in 2.5 mi East 5.8 mph - 0.02 in Rain Light Rain
5:54 PM 34.0 °F 31.0 °F 32.0 °F 92% 29.51 in 3.0 mi Variable 3.5 mph - 0.02 in Rain Light Rain
6:54 PM 34.0 °F 29.8 °F 33.1 °F 96% 29.46 in 3.0 mi ESE 4.6 mph - 0.04 in Rain Light Rain
7:54 PM 35.1 °F 29.3 °F 34.0 °F 96% 29.42 in 7.0 mi SE 6.9 mph - 0.02 in Rain Light Rain
8:16 PM 35.6 °F 29.9 °F 33.8 °F 93% 29.36 in 3.0 mi SE 6.9 mph - 0.00 in   Overcast
8:39 PM 35.6 °F 29.9 °F 33.8 °F 93% 29.34 in 2.0 mi SE 6.9 mph - 0.00 in Rain Light Rain
8:54 PM 36.0 °F 33.3 °F 35.1 °F 97% 29.37 in 2.5 mi SSE 3.5 mph - 0.00 in   Overcast
9:03 PM 35.6 °F 30.7 °F 33.8 °F 93% 29.33 in 1.0 mi Variable 5.8 mph - N/A   Overcast
9:08 PM 35.6 °F 30.7 °F 33.8 °F 93% 29.33 in 0.8 mi West 5.8 mph - N/A   Mist
9:45 PM 35.6 °F 32.8 °F 33.8 °F 93% 29.31 in 0.2 mi SE 3.5 mph - 0.00 in Fog Fog
9:54 PM 34.0 °F 31.0 °F 34.0 °F 100% 29.36 in 0.2 mi SE 3.5 mph - 0.00 in Fog Fog
10:52 PM 35.6 °F 29.9 °F 35.6 °F 100% 29.31 in 1.0 mi SSW 6.9 mph - N/A   Mist
10:53 PM 36.0 °F 29.0 °F 35.1 °F 97% 29.35 in 1.2 mi SSW 9.2 mph - N/A   Overcast
10:57 PM 37.4 °F 31.4 °F 35.6 °F 93% 29.31 in 3.0 mi SW 8.1 mph - N/A   Overcast
11:32 PM 35.6 °F 29.2 °F 33.8 °F 93% 29.33 in 10.0 mi SW 8.1 mph - N/A   Overcast
11:54 PM 35.1 °F 25.9 °F 33.1 °F 92% 29.39 in 10.0 mi WSW 13.8 mph 26.5 mph N/A   Overcast